FW0689 Weather Reports


time (UTC)temp
C
wind
direction
speed
KPH
gust
KPH
rain 1hr
cm
rain 24hr
cm
rain mn
cm
humidity
%
barometer
mb
20260507024921 3 315 0.0 0.0 0.00 0.00 0.00 43 1017.7
20260507021920 3 315 0.0 0.0 0.00 0.00 0.00 43 1017.4
20260507021019 3 315 0.0 0.0 0.00 0.00 0.00 43 1017.5
20260507020021 3 315 0.0 0.0 0.00 0.00 0.00 43 1017.4
20260507012121 5 341 0.0 0.0 0.00 0.00 0.00 42 1017.3
20260507010121 5 335 0.0 0.0 0.00 0.00 0.00 42 1017.2
20260507005219 5 323 0.0 0.0 0.00 0.00 0.00 42 1017.1
20260507004318 5 336 0.0 0.0 0.00 0.00 0.00 42 1017.0
20260507003321 5 329 0.0 0.0 0.00 0.00 0.00 42 1017.0
20260507002320 5 333 0.0 0.0 0.00 0.00 0.00 42 1017.1
20260507001320 5 333 0.0 0.0 0.00 0.00 0.00 42 1017.1
20260507000321 5 336 0.0 0.0 0.00 0.00 0.00 42 1017.1
20260506234320 5 326 0.0 0.0 0.00 0.00 0.00 42 1017.3
20260506233320 6 337 0.0 0.0 0.00 0.00 0.00 41 1017.1
20260506232337 6 316 0.0 0.0 0.00 0.00 0.00 40 1017.1
20260506225320 6 321 0.0 0.0 0.00 0.00 0.00 41 1017.1
20260506224319 6 346 0.0 0.0 0.00 0.00 0.00 41 1017.1
20260506223322 7 339 0.0 0.0 0.00 0.00 0.00 41 1017.0
20260506222420 7 5 0.0 0.0 0.00 0.00 0.00 41 1017.1
20260506221436 7 337 0.0 0.0 0.00 0.00 0.00 41 1017.0
20260506220419 7 342 0.0 0.0 0.00 0.00 0.00 41 1016.9
20260506214431 7 1 0.0 0.0 0.00 0.00 0.00 41 1016.9
20260506211430 8 347 0.0 0.0 0.00 0.00 0.00 41 1016.8
20260506210430 8 358 0.0 0.0 0.00 0.00 0.00 40 1016.7
20260506210331 8 354 0.0 0.0 0.00 0.00 0.00 40 1016.7
20260506205429 8 360 0.0 0.0 0.00 0.00 0.00 39 1016.7
20260506204433 8 2 0.0 0.0 0.00 0.00 0.00 40 1016.7
20260506203530 9 1 0.0 0.0 0.00 0.00 0.00 40 1016.7
20260506202530 9 1 0.0 0.0 0.00 0.00 0.00 40 1016.5
20260506201629 9 336 0.0 0.0 0.00 0.00 0.00 40 1016.5
20260506200629 9 344 0.0 0.0 0.00 0.00 0.00 40 1016.4
20260506195631 9 360 0.0 0.0 0.00 0.00 0.00 40 1016.4
20260506194629 9 360 0.0 0.0 0.00 0.00 0.00 40 1016.2
20260506193630 9 45 0.0 0.0 0.00 0.00 0.00 41 1016.3
20260506192629 9 45 0.0 0.0 0.00 0.00 0.00 41 1016.2
20260506191629 9 45 0.0 0.0 0.00 0.00 0.00 41 1015.9
20260506185631 10 45 0.0 0.0 0.00 0.00 0.00 41 1016.0
20260506184630 10 22 0.0 0.0 0.00 0.00 0.00 41 1015.7
20260506183630 10 22 0.0 0.0 0.00 0.00 0.00 40 1015.7
20260506182729 10 22 0.0 0.0 0.00 0.00 0.00 41 1015.6
20260506181729 10 22 0.0 0.0 0.00 0.00 0.00 41 1015.5
20260506180828 10 65 0.0 0.0 0.00 0.00 0.00 41 1015.2
20260506175828 10 22 0.0 0.0 0.00 0.00 0.00 41 1015.2
20260506174828 10 22 0.0 0.0 0.00 0.00 0.00 41 1015.1
20260506173829 10 28 0.0 0.0 0.00 0.00 0.00 41 1014.9
20260506172928 10 22 0.0 0.0 0.00 0.00 0.00 41 1015.0
20260506171930 10 59 0.0 0.0 0.00 0.00 0.00 41 1014.8
20260506165930 10 54 0.0 0.0 0.00 0.00 0.00 41 1014.8
20260506165029 10 22 0.0 0.0 0.00 0.00 0.00 41 1014.8
20260506164029 10 57 0.0 0.0 0.00 0.00 0.00 41 1014.9
20260506163030 10 62 0.0 0.0 0.00 0.00 0.00 40 1014.8
20260506162128 10 37 0.0 0.0 0.00 0.00 0.00 41 1014.8
20260506161131 10 86 0.0 0.0 0.00 0.00 0.00 41 1014.8
20260506155130 10 68 0.0 0.0 0.00 0.00 0.00 41 1014.9
20260506153128 10 59 0.0 0.0 0.00 0.00 0.00 41 1014.7
20260506151130 10 54 0.0 0.0 0.00 0.00 0.00 41 1014.8
20260506145128 10 66 0.0 0.0 0.00 0.00 0.00 41 1014.6
20260506144130 10 69 0.0 0.0 0.00 0.00 0.00 41 1014.6
20260506143130 10 46 0.0 0.0 0.00 0.00 0.00 41 1014.6
20260506142130 10 64 0.0 0.0 0.00 0.00 0.00 41 1014.6
20260506141229 10 50 0.0 0.0 0.00 0.00 0.00 40 1014.7
20260506135328 10 44 0.0 0.0 0.00 0.00 0.00 41 1014.6
20260506134330 10 29 0.0 0.0 0.00 0.00 0.00 41 1014.6
20260506133329 10 60 0.0 0.0 0.00 0.00 0.00 41 1014.5
20260506132346 10 49 0.0 0.0 0.00 0.00 0.00 41 1014.5
20260506131429 10 35 0.0 0.0 0.00 0.00 0.00 41 1014.5
20260506130528 10 44 0.0 0.0 0.00 0.00 0.00 40 1014.5
20260506125530 10 41 0.0 0.0 0.00 0.00 0.00 40 1014.5
20260506124532 9 11 0.0 0.0 0.00 0.00 0.00 40 1014.4
20260506123530 9 14 0.0 0.0 0.00 0.00 0.00 40 1014.4
20260506122531 9 37 0.0 0.0 0.00 0.00 0.00 40 1014.4
20260506121531 9 19 0.0 0.0 0.00 0.00 0.00 40 1014.3
20260506120629 9 27 0.0 0.0 0.00 0.00 0.00 39 1014.2
20260506115629 9 13 0.0 0.0 0.00 0.00 0.00 40 1014.1
20260506114645 9 15 0.0 0.0 0.00 0.00 0.00 40 1013.9
20260506113731 9 26 0.0 0.0 0.00 0.00 0.00 40 1013.9
20260506112731 9 17 0.0 0.0 0.00 0.00 0.00 40 1013.9
20260506104831 9 26 0.0 0.0 0.00 0.00 0.00 41 1013.8
20260506103830 9 33 0.0 0.0 0.00 0.00 0.00 41 1013.8
20260506102832 9 16 0.0 0.0 0.00 0.00 0.00 41 1013.7
20260506100930 9 23 0.0 0.0 0.00 0.00 0.00 41 1013.6
20260506095931 9 21 0.0 0.0 0.00 0.00 0.00 41 1013.5
20260506094946 9 16 0.0 0.0 0.00 0.00 0.00 41 1013.4
20260506093931 8 32 0.0 0.0 0.00 0.00 0.00 40 1013.4
20260506093831 8 12 0.0 0.0 0.00 0.00 0.00 40 1013.4
20260506092844 8 24 0.0 0.0 0.00 0.00 0.00 40 1013.4
20260506091830 8 10 0.0 0.0 0.00 0.00 0.00 40 1013.4
20260506090828 8 46 0.0 0.0 0.00 0.00 0.00 40 1013.3
20260506085832 8 14 0.0 0.0 0.00 0.00 0.00 40 1013.3
20260506084829 8 21 0.0 0.0 0.00 0.00 0.00 40 1013.0
20260506083831 8 20 0.0 0.0 0.00 0.00 0.00 40 1013.2
20260506080929 8 45 0.0 0.0 0.00 0.00 0.00 40 1013.1
20260506073031 8 27 0.0 0.0 0.00 0.00 0.00 40 1012.9
20260506072129 8 33 0.0 0.0 0.00 0.00 0.00 39 1012.9
20260506071131 8 51 0.0 0.0 0.00 0.00 0.00 40 1012.9
20260506070228 8 37 0.0 0.0 0.00 0.00 0.00 40 1012.9
20260506062329 8 20 0.0 0.0 0.00 0.00 0.00 40 1012.6
20260506061330 8 42 0.0 0.0 0.00 0.00 0.00 40 1012.5
20260506060345 8 10 0.0 0.0 0.00 0.00 0.00 40 1012.3
20260506043631 8 12 0.0 0.0 0.00 0.00 0.00 40 1012.3
20260506042632 8 1 0.0 0.0 0.00 0.00 0.00 40 1012.2
20260506041631 8 2 0.0 0.0 0.00 0.00 0.00 40 1012.2
20260506040629 8 359 0.0 0.0 0.00 0.00 0.00 40 1012.3
20260506035629 8 1 0.0 0.0 0.00 0.00 0.00 40 1012.3
20260506034728 8 4 0.0 0.0 0.00 0.00 0.00 40 1012.3
20260506033729 8 353 0.0 0.0 0.00 0.00 0.00 40 1012.4
20260506032730 8 353 0.0 0.0 0.00 0.00 0.00 40 1012.5
20260506031729 8 357 0.0 0.0 0.00 0.00 0.00 40 1012.5
20260506030730 8 350 0.0 0.0 0.00 0.00 0.00 40 1012.7
20260506025829 8 356 0.0 0.0 0.00 0.00 0.00 40 1012.5